This is the latest recevied weather packets stored in our database for station/object N6GPM. If no packets are shown the sender has not sent any weather packets the latest 10 day(s).
| Time | Temp. | Humidity | Pressure | Rain* | Wind** | Luminosity | Snow |
|---|---|---|---|---|---|---|---|
| 1787609439 | 37.78° C | 22% | 1017.5 hPa | 0 mm | - | 802 W/m² | - |
| 1787609134 | 37.78° C | 22% | 1017.6 hPa | 0 mm | - | 820 W/m² | - |
| 1787608829 | 37.78° C | 22% | 1017.6 hPa | 0 mm | - | 825 W/m² | - |
| 1787608528 | 37.78° C | 22% | 1017.9 hPa | 0 mm | - | 837 W/m² | - |
| 1787608224 | 38.33° C | 22% | 1017.8 hPa | 0 mm | - | 849 W/m² | - |
| 1787607921 | 38.89° C | 21% | 1018.1 hPa | 0 mm | - | 866 W/m² | - |
| 1787607618 | 38.33° C | 21% | 1017.9 hPa | 0 mm | - | 874 W/m² | - |
| 1787607314 | 37.78° C | 21% | 1018.1 hPa | 0 mm | - | 886 W/m² | - |
| 1787607010 | 38.33° C | 20% | 1018.1 hPa | 0 mm | - | 896 W/m² | - |
| 1787606708 | 38.89° C | 20% | 1018.2 hPa | 0 mm | - | 906 W/m² | - |
| 1787606402 | 38.33° C | 20% | 1018.2 hPa | 0 mm | - | 913 W/m² | - |
| 1787606097 | 37.78° C | 20% | 1018.2 hPa | 0 mm | - | 922 W/m² | - |
| 1787605796 | 37.78° C | 21% | 1018.3 hPa | 0 mm | - | 931 W/m² | - |
| 1787605491 | 37.22° C | 21% | 1018.4 hPa | 0 mm | - | 941 W/m² | - |
| 1787605187 | 37.78° C | 22% | 1018.3 hPa | 0 mm | - | 947 W/m² | - |
| 1787604885 | 37.78° C | 22% | 1018.6 hPa | 0 mm | - | 953 W/m² | - |
| 1787604580 | 38.33° C | 21% | 1018.7 hPa | 0 mm | - | 960 W/m² | - |
| 1787604275 | 37.78° C | 22% | 1018.7 hPa | 0 mm | - | 965 W/m² | - |
| 1787603970 | 37.78° C | 22% | 1018.6 hPa | 0 mm | - | 971 W/m² | - |
| 1787603669 | 37.22° C | 22% | 1018.7 hPa | 0 mm | - | 979 W/m² | - |
| 1787603365 | 37.78° C | 22% | 1018.7 hPa | 0 mm | - | 984 W/m² | - |
| 1787603061 | 37.22° C | 23% | 1018.9 hPa | 0 mm | - | 986 W/m² | - |
| 1787602758 | 36.67° C | 24% | 1018.8 hPa | 0 mm | - | 993 W/m² | - |
| 1787602457 | 37.22° C | 23% | 1018.9 hPa | 0 mm | - | 999 W/m² | - |
| 1787602152 | 36.67° C | 24% | 1018.8 hPa | 0 mm | - | 1004 W/m² | - |
* Rain latest hour (hover to see other rain measurements)
** Current wind speed in m/s (hover to see current wind gust speed)